{"data":{"norad_id":51974,"epoch":"2026-09-19T06:52:17.974560Z","epoch_age_seconds":161117,"freshness":"FRESH","line1":"1 51974U 22025U   26262.28631915  .00000442  00000+0  26002-4 0  9993","line2":"2 51974  53.1602 216.2315 0001373  84.4691 275.6467 15.31704209250489","mean_motion":15.31704209,"eccentricity":0.0001373,"inclination_deg":53.1602,"raan_deg":216.2315,"arg_perigee_deg":84.4691,"mean_anomaly_deg":275.6467,"bstar":2.6002e-5,"rev_number":25048,"period_min":94.012929620408,"perigee_km":469.78709935563,"apogee_km":471.66779753317,"semimajor_km":6848.8644484444,"source":"CELESTRAK","updated_at":"2026-09-20T09:00:39.978467Z"}}